,,,PA_Meas_PMT16A,,PR_Meas_QMR101_102,,RH_Meas_QMH101,,SR_Meas_QMS101,,TA_Meas_QMH101,,GenWind,,GenWind,
date,time,status,PA,status,PR,status,RH,status,SR,status,TA,status,DirAvg,status,SpdAvg,
2012-02-13, 00:00:05,VALID,1000.43,VALID,0,VALID,93.8367,VALID,0,VALID,23.9549,VALID,112,VALID,0,
2012-02-13, 00:01:05,VALID,1000.4,VALID,0,VALID,93.8443,VALID,0,VALID,23.9336,VALID,112,VALID,0,
2012-02-13, 00:02:05,VALID,1000.39,VALID,0,VALID,93.8748,VALID,0,VALID,23.9354,VALID,345,VALID,0.365625,
2012-02-13, 00:03:05,VALID,1000.37,VALID,0,VALID,93.9283,VALID,0,VALID,23.9549,VALID,344,VALID,0.529688,
2012-02-13, 00:04:05,VALID,1000.36,VALID,0,VALID,93.9511,VALID,0,VALID,23.9354,VALID,344,VALID,0.657422,
2012-02-13, 00:05:05,VALID,1000.38,VALID,0,VALID,93.9664,VALID,0,VALID,23.9354,VALID,344,VALID,0.594141,
2012-02-13, 00:06:05,VALID,1000.36,VALID,0,VALID,93.9893,VALID,0,VALID,23.9354,VALID,5,VALID,0.651172,
2012-02-13, 00:07:05,VALID,1000.36,VALID,0,VALID,94.0503,VALID,0,VALID,23.9354,VALID,33,VALID,1.23555,
2012-02-13, 00:08:05,VALID,1000.36,VALID,0,VALID,94.1114,VALID,0,VALID,23.9531,VALID,36,VALID,1.09453,
2012-02-13, 00:09:05,VALID,1000.35,VALID,0,VALID,94.1495,VALID,0,VALID,23.9939,VALID,43,VALID,1.08203,
2012-02-13, 00:10:05,VALID,1000.34,VALID,0,VALID,94.1953,VALID,0,VALID,24.0134,VALID,44,VALID,1.45078,
2012-02-13, 00:11:05,VALID,1000.34,VALID,0,VALID,94.2029,VALID,0,VALID,24.0134,VALID,44,VALID,1.39922,
2012-02-13, 00:12:05,VALID,1000.32,VALID,0,VALID,94.2411,VALID,0,VALID,24.0134,VALID,48,VALID,1.33477,
2012-02-13, 00:13:05,VALID,1000.33,VALID,0,VALID,94.2334,VALID,0,VALID,24.0134,VALID,41,VALID,1.39063,
2012-02-13, 00:14:05,VALID,1000.32,VALID,0,VALID,94.2334,VALID,0,VALID,24.0134,VALID,37,VALID,1.35312,
2012-02-13, 00:15:05,VALID,1000.33,VALID,0,VALID,94.2716,VALID,0,VALID,23.9726,VALID,39,VALID,1.64492,
2012-02-13, 00:16:05,VALID,1000.29,VALID,0,VALID,94.2563,VALID,0,VALID,23.9726,VALID,39,VALID,1.53359,
2012-02-13, 00:17:05,VALID,1000.28,VALID,0,VALID,94.2792,VALID,0,VALID,23.9744,VALID,36,VALID,1.13984,
2012-02-13, 00:18:05,VALID,1000.26,VALID,0,VALID,94.2716,VALID,0,VALID,23.9744,VALID,39,VALID,1.19727,
2012-02-13, 00:19:05,VALID,1000.24,VALID,0,VALID,94.264,VALID,0,VALID,23.9354,VALID,40,VALID,1.27813,
2012-02-13, 00:20:05,VALID,1000.21,VALID,0,VALID,94.2792,VALID,0,VALID,23.8945,VALID,39,VALID,1.07695,
2012-02-13, 00:21:05,VALID,1000.21,VALID,0,VALID,94.3021,VALID,0,VALID,23.8963,VALID,17,VALID,0.969922,
2012-02-13, 00:22:05,VALID,1000.17,VALID,0,VALID,94.2945,VALID,0,VALID,23.8963,VALID,23,VALID,1.06484,
2012-02-13, 00:23:05,VALID,1000.18,VALID,0,VALID,94.3097,VALID,0,VALID,23.8963,VALID,28,VALID,0.748438,
2012-02-13, 00:24:05,VALID,1000.17,VALID,0,VALID,94.3174,VALID,0,VALID,23.8768,VALID,28,VALID,0.55625,
2012-02-13, 00:25:05,VALID,1000.17,VALID,0,VALID,94.3403,VALID,0,VALID,23.8573,VALID,28,VALID,0.428516,
2012-02-13, 00:26:05,VALID,1000.22,VALID,0,VALID,94.3174,VALID,0,VALID,23.8165,VALID,28,VALID,0.233984,
2012-02-13, 00:27:05,VALID,1000.15,VALID,0,VALID,94.3555,VALID,0,VALID,23.8183,VALID,28,VALID,0.517187,
2012-02-13, 00:28:05,VALID,1000.17,VALID,0,VALID,94.3555,VALID,0,VALID,23.7988,VALID,28,VALID,0.442187,
2012-02-13, 00:29:05,VALID,1000.17,VALID,0,VALID,94.3631,VALID,0,VALID,23.7579,VALID,28,VALID,0.472656,
2012-02-13, 00:30:05,VALID,1000.19,VALID,0,VALID,94.3479,VALID,0,VALID,23.7597,VALID,28,VALID,0.109766,
2012-02-13, 00:31:05,VALID,1000.15,VALID,0,VALID,94.3479,VALID,0,VALID,23.7597,VALID,28,VALID,0.306641,
2012-02-13, 00:32:05,VALID,1000.15,VALID,0,VALID,94.3555,VALID,0,VALID,23.7402,VALID,28,VALID,0.140625,
2012-02-13, 00:33:05,VALID,1000.15,VALID,0,VALID,94.3479,VALID,0,VALID,23.7189,VALID,28,VALID,0,
2012-02-13, 00:34:05,VALID,1000.11,VALID,0,VALID,94.3479,VALID,0,VALID,23.7207,VALID,28,VALID,0,
2012-02-13, 00:35:05,VALID,1000.07,VALID,0,VALID,94.3631,VALID,0,VALID,23.7012,VALID,28,VALID,0,
2012-02-13, 00:36:05,VALID,1000.06,VALID,0,VALID,94.3708,VALID,0,VALID,23.6799,VALID,28,VALID,0,
2012-02-13, 00:37:05,VALID,1000.06,VALID,0,VALID,94.3784,VALID,0,VALID,23.6817,VALID,28,VALID,0,
2012-02-13, 00:38:05,VALID,1000,VALID,0,VALID,94.3631,VALID,0,VALID,23.6817,VALID,28,VALID,0,
2012-02-13, 00:39:05,VALID,999.985,VALID,0,VALID,94.3937,VALID,0,VALID,23.6622,VALID,28,VALID,0,
2012-02-13, 00:40:05,VALID,999.985,VALID,0,VALID,94.4089,VALID,0,VALID,23.6409,VALID,28,VALID,0.655859,
2012-02-13, 00:41:05,VALID,999.989,VALID,0,VALID,94.4013,VALID,0,VALID,23.6409,VALID,60,VALID,0.598437,
2012-02-13, 00:42:05,VALID,999.984,VALID,0,VALID,94.4242,VALID,0,VALID,23.6622,VALID,82,VALID,0.747656,
2012-02-13, 00:43:05,VALID,999.998,VALID,0,VALID,94.4318,VALID,0,VALID,23.6622,VALID,97,VALID,0.81875,
2012-02-13, 00:44:05,VALID,999.998,VALID,0,VALID,94.4394,VALID,0,VALID,23.6427,VALID,102,VALID,0.921875,
2012-02-13, 00:45:05,VALID,1000.02,VALID,0,VALID,94.47,VALID,0,VALID,23.6427,VALID,108,VALID,0.88125,
2012-02-13, 00:46:05,VALID,1000.03,VALID,0,VALID,94.4623,VALID,0,VALID,23.6232,VALID,111,VALID,0.953906,
2012-02-13, 00:47:05,VALID,1000.04,VALID,0,VALID,94.4623,VALID,0,VALID,23.6214,VALID,123,VALID,0.989062,
2012-02-13, 00:48:05,VALID,1000.01,VALID,0,VALID,94.47,VALID,0,VALID,23.6427,VALID,123,VALID,0.994141,
2012-02-13, 00:49:05,VALID,1000.04,VALID,0,VALID,94.47,VALID,0,VALID,23.6214,VALID,123,VALID,1.26133,
2012-02-13, 00:50:05,VALID,1000.04,VALID,0,VALID,94.5081,VALID,0,VALID,23.6427,VALID,122,VALID,0.992578,
2012-02-13, 00:51:05,VALID,999.979,VALID,0,VALID,94.5081,VALID,0,VALID,23.6214,VALID,114,VALID,1.00508,
2012-02-13, 00:52:05,VALID,999.953,VALID,0,VALID,94.5081,VALID,0,VALID,23.6232,VALID,111,VALID,1.12344,
2012-02-13, 00:53:05,VALID,999.953,VALID,0,VALID,94.5234,VALID,0,VALID,23.6427,VALID,108,VALID,1.16523,
2012-02-13, 00:54:05,VALID,999.964,VALID,0,VALID,94.5157,VALID,0,VALID,23.6232,VALID,101,VALID,1.03789,
2012-02-13, 00:55:05,VALID,999.982,VALID,0,VALID,94.5386,VALID,0,VALID,23.6232,VALID,83,VALID,1.13984,
2012-02-13, 00:56:05,VALID,999.986,VALID,0,VALID,94.5462,VALID,0,VALID,23.6232,VALID,81,VALID,1.0793,
2012-02-13, 00:57:05,VALID,999.965,VALID,0,VALID,94.5234,VALID,0,VALID,23.6445,VALID,73,VALID,0.983594,
2012-02-13, 00:58:05,VALID,999.931,VALID,0,VALID,94.5386,VALID,0,VALID,23.6036,VALID,66,VALID,0.875,
2012-02-13, 00:59:05,VALID,999.948,VALID,0,VALID,94.5386,VALID,0,VALID,23.6036,VALID,62,VALID,0.623828,
2012-02-13, 01:00:05,VALID,999.925,VALID,0,VALID,94.5157,VALID,0,VALID,23.5841,VALID,62,VALID,0.634766,
2012-02-13, 01:01:05,VALID,999.891,VALID,0,VALID,94.5234,VALID,0,VALID,23.5628,VALID,62,VALID,0.464453,
2012-02-13, 01:02:05,VALID,999.887,VALID,0,VALID,94.5234,VALID,0,VALID,23.5433,VALID,62,VALID,0.326953,
2012-02-13, 01:03:05,VALID,999.864,VALID,0,VALID,94.5157,VALID,0,VALID,23.5451,VALID,62,VALID,0,
2012-02-13, 01:04:05,VALID,999.822,VALID,0,VALID,94.5234,VALID,0,VALID,23.5451,VALID,62,VALID,0.235547,
2012-02-13, 01:05:05,VALID,999.829,VALID,0,VALID,94.5234,VALID,0,VALID,23.5238,VALID,62,VALID,0.286328,
2012-02-13, 01:06:05,VALID,999.824,VALID,0,VALID,94.5234,VALID,0,VALID,23.5256,VALID,62,VALID,0.432813,
2012-02-13, 01:07:05,VALID,999.821,VALID,0,VALID,94.5386,VALID,0,VALID,23.5256,VALID,62,VALID,0.237891,
2012-02-13, 01:08:05,VALID,999.842,VALID,0,VALID,94.5539,VALID,0,VALID,23.5256,VALID,62,VALID,0.162109,
2012-02-13, 01:09:05,VALID,999.807,VALID,0,VALID,94.5157,VALID,0,VALID,23.4848,VALID,62,VALID,0.206641,
2012-02-13, 01:10:05,VALID,999.821,VALID,0,VALID,94.5615,VALID,0,VALID,23.5061,VALID,62,VALID,0.241797,
2012-02-13, 01:11:05,VALID,999.82,VALID,0,VALID,94.531,VALID,0,VALID,23.4653,VALID,62,VALID,0.0308594,
2012-02-13, 01:12:05,VALID,999.837,VALID,0,VALID,94.531,VALID,0,VALID,23.4671,VALID,62,VALID,0.158594,
2012-02-13, 01:13:05,VALID,999.818,VALID,0,VALID,94.5386,VALID,0,VALID,23.4671,VALID,62,VALID,0.348047,
2012-02-13, 01:14:05,VALID,999.823,VALID,0,VALID,94.5615,VALID,0,VALID,23.4671,VALID,63,VALID,0.474219,
2012-02-13, 01:15:05,VALID,999.778,VALID,0,VALID,94.5615,VALID,0,VALID,23.4671,VALID,63,VALID,0.401172,
2012-02-13, 01:16:05,VALID,999.769,VALID,0,VALID,94.5462,VALID,0,VALID,23.4671,VALID,63,VALID,0.125781,
2012-02-13, 01:17:05,VALID,999.708,VALID,0,VALID,94.5462,VALID,0,VALID,23.4475,VALID,63,VALID,0,
2012-02-13, 01:18:05,VALID,999.673,VALID,0,VALID,94.5615,VALID,0,VALID,23.4475,VALID,63,VALID,0,
2012-02-13, 01:19:05,VALID,999.68,VALID,0,VALID,94.5768,VALID,0,VALID,23.4475,VALID,63,VALID,0.178516,
2012-02-13, 01:20:05,VALID,999.674,VALID,0,VALID,94.5691,VALID,0,VALID,23.4475,VALID,63,VALID,0.078125,
2012-02-13, 01:21:05,VALID,999.641,VALID,0,VALID,94.5691,VALID,0,VALID,23.4475,VALID,63,VALID,0,
2012-02-13, 01:22:05,VALID,999.599,VALID,0,VALID,94.5844,VALID,0,VALID,23.4475,VALID,63,VALID,0,
2012-02-13, 01:23:05,VALID,999.596,VALID,0,VALID,94.5844,VALID,0,VALID,23.4263,VALID,63,VALID,0,
2012-02-13, 01:24:05,VALID,999.588,VALID,0,VALID,94.6149,VALID,0,VALID,23.4475,VALID,63,VALID,0,
2012-02-13, 01:25:05,VALID,999.581,VALID,0,VALID,94.5997,VALID,0,VALID,23.4475,VALID,63,VALID,0,
2012-02-13, 01:26:05,VALID,999.573,VALID,0,VALID,94.6149,VALID,0,VALID,23.4458,VALID,63,VALID,0,
2012-02-13, 01:27:05,VALID,999.581,VALID,0,VALID,94.592,VALID,0,VALID,23.4458,VALID,63,VALID,0,
2012-02-13, 01:28:05,VALID,999.597,VALID,0,VALID,94.5997,VALID,0,VALID,23.4475,VALID,63,VALID,0,
2012-02-13, 01:29:05,VALID,999.58,VALID,0,VALID,94.6073,VALID,0,VALID,23.4458,VALID,63,VALID,0,
2012-02-13, 01:30:05,VALID,999.576,VALID,0,VALID,94.6226,VALID,0,VALID,23.4475,VALID,63,VALID,0,
2012-02-13, 01:31:05,VALID,999.544,VALID,0,VALID,94.6073,VALID,0,VALID,23.4475,VALID,63,VALID,0,
2012-02-13, 01:32:05,VALID,999.548,VALID,0,VALID,94.6226,VALID,0,VALID,23.4671,VALID,63,VALID,0.437891,
2012-02-13, 01:33:05,VALID,999.515,VALID,0,VALID,94.6378,VALID,0,VALID,23.4671,VALID,63,VALID,0.491797,
2012-02-13, 01:34:05,VALID,999.502,VALID,0,VALID,94.6531,VALID,0,VALID,23.4671,VALID,63,VALID,0.362891,
2012-02-13, 01:35:05,VALID,999.486,VALID,0,VALID,94.6378,VALID,0,VALID,23.4458,VALID,63,VALID,0.219141,
2012-02-13, 01:36:05,VALID,999.502,VALID,0,VALID,94.6454,VALID,0,VALID,23.4475,VALID,63,VALID,0.163672,
2012-02-13, 01:37:05,VALID,999.481,VALID,0,VALID,94.6607,VALID,0,VALID,23.4263,VALID,63,VALID,0,
2012-02-13, 01:38:05,VALID,999.495,VALID,0,VALID,94.6378,VALID,0,VALID,23.428,VALID,63,VALID,0,
2012-02-13, 01:39:05,VALID,999.526,VALID,0.5,VALID,94.6454,VALID,0,VALID,23.3872,VALID,63,VALID,0,
2012-02-13, 01:40:05,VALID,999.535,VALID,0,VALID,94.6454,VALID,0,VALID,23.4085,VALID,63,VALID,0.0296875,
2012-02-13, 01:41:05,VALID,999.553,VALID,0,VALID,94.6607,VALID,0,VALID,23.3677,VALID,63,VALID,0.499219,
2012-02-13, 01:42:05,VALID,999.563,VALID,0,VALID,94.6531,VALID,0,VALID,23.3872,VALID,63,VALID,0.576953,
2012-02-13, 01:43:05,VALID,999.575,VALID,0,VALID,94.6683,VALID,0,VALID,23.4067,VALID,63,VALID,0.505859,
2012-02-13, 01:44:05,VALID,999.638,VALID,0,VALID,94.6912,VALID,0,VALID,23.428,VALID,63,VALID,0.507422,
2012-02-13, 01:45:05,VALID,999.62,VALID,0,VALID,94.676,VALID,0,VALID,23.4067,VALID,63,VALID,0.626562,
2012-02-13, 01:46:05,VALID,999.622,VALID,0,VALID,94.7065,VALID,0,VALID,23.4475,VALID,79,VALID,0.834375,
2012-02-13, 01:47:05,VALID,999.66,VALID,0,VALID,94.6988,VALID,0,VALID,23.428,VALID,84,VALID,0.879297,
2012-02-13, 01:48:05,VALID,999.655,VALID,0,VALID,94.7065,VALID,0,VALID,23.4263,VALID,88,VALID,0.867969,
2012-02-13, 01:49:05,VALID,999.66,VALID,0,VALID,94.6988,VALID,0,VALID,23.4263,VALID,88,VALID,0.837891,
2012-02-13, 01:50:05,VALID,999.652,VALID,0,VALID,94.7294,VALID,0,VALID,23.4067,VALID,91,VALID,0.713281,
2012-02-13, 01:51:05,VALID,999.631,VALID,0,VALID,94.7065,VALID,0,VALID,23.4263,VALID,91,VALID,0.770312,
2012-02-13, 01:52:05,VALID,999.61,VALID,0,VALID,94.7065,VALID,0,VALID,23.4067,VALID,96,VALID,0.753125,
2012-02-13, 01:53:05,VALID,999.593,VALID,0,VALID,94.7217,VALID,0,VALID,23.4067,VALID,96,VALID,0.533984,
2012-02-13, 01:54:05,VALID,999.604,VALID,0,VALID,94.7141,VALID,0,VALID,23.3872,VALID,96,VALID,0.225781,
2012-02-13, 01:55:05,VALID,999.598,VALID,0,VALID,94.7294,VALID,0,VALID,23.3872,VALID,96,VALID,0,
2012-02-13, 01:56:05,VALID,999.593,VALID,0,VALID,94.7217,VALID,0,VALID,23.4067,VALID,96,VALID,0.134375,
2012-02-13, 01:57:05,VALID,999.599,VALID,0,VALID,94.7065,VALID,0,VALID,23.4085,VALID,96,VALID,0,
2012-02-13, 01:58:05,VALID,999.622,VALID,0,VALID,94.7446,VALID,0,VALID,23.3677,VALID,96,VALID,0,
2012-02-13, 01:59:05,VALID,999.604,VALID,0,VALID,94.7446,VALID,0,VALID,23.4085,VALID,96,VALID,0,
2012-02-13, 02:00:05,VALID,999.631,VALID,0,VALID,94.7446,VALID,0,VALID,23.428,VALID,96,VALID,0,
2012-02-13, 02:01:05,VALID,999.669,VALID,0,VALID,94.7294,VALID,0,VALID,23.4067,VALID,96,VALID,0,
2012-02-13, 02:02:05,VALID,999.69,VALID,0,VALID,94.7446,VALID,0.104696,VALID,23.4067,VALID,96,VALID,0.513672,
2012-02-13, 02:03:05,VALID,999.694,VALID,0,VALID,94.7523,VALID,0,VALID,23.4263,VALID,116,VALID,0.661719,
2012-02-13, 02:04:05,VALID,999.704,VALID,0,VALID,94.7294,VALID,0,VALID,23.4263,VALID,123,VALID,0.500391,
2012-02-13, 02:05:05,VALID,999.726,VALID,0,VALID,94.7523,VALID,0,VALID,23.4653,VALID,133,VALID,0.823438,
2012-02-13, 02:06:05,VALID,999.763,VALID,0,VALID,94.7599,VALID,0,VALID,23.4653,VALID,133,VALID,0.641406,
2012-02-13, 02:07:05,VALID,999.75,VALID,0,VALID,94.7675,VALID,0,VALID,23.4866,VALID,133,VALID,0.335938,
2012-02-13, 02:08:05,VALID,999.765,VALID,0,VALID,94.7599,VALID,0,VALID,23.4458,VALID,133,VALID,0,
2012-02-13, 02:09:05,VALID,999.773,VALID,0,VALID,94.7523,VALID,0,VALID,23.4653,VALID,133,VALID,0,
2012-02-13, 02:10:05,VALID,999.782,VALID,0,VALID,94.7523,VALID,0,VALID,23.4458,VALID,133,VALID,0,
2012-02-13, 02:11:05,VALID,999.788,VALID,0,VALID,94.7294,VALID,0,VALID,23.4671,VALID,133,VALID,0,
2012-02-13, 02:12:05,VALID,999.761,VALID,0,VALID,94.7141,VALID,0,VALID,23.4458,VALID,133,VALID,0,
2012-02-13, 02:13:05,VALID,999.775,VALID,0,VALID,94.737,VALID,0,VALID,23.4263,VALID,133,VALID,0,
2012-02-13, 02:14:05,VALID,999.758,VALID,0,VALID,94.7217,VALID,0,VALID,23.4458,VALID,69,VALID,0.348047,
2012-02-13, 02:15:05,VALID,999.741,VALID,0,VALID,94.7217,VALID,0,VALID,23.4458,VALID,69,VALID,0,
2012-02-13, 02:16:05,VALID,999.726,VALID,0,VALID,94.7217,VALID,0,VALID,23.4475,VALID,69,VALID,0,
2012-02-13, 02:17:05,VALID,999.726,VALID,0,VALID,94.7141,VALID,0,VALID,23.4475,VALID,69,VALID,0,
2012-02-13, 02:18:05,VALID,999.73,VALID,0,VALID,94.7217,VALID,0,VALID,23.4263,VALID,69,VALID,0,
2012-02-13, 02:19:05,VALID,999.744,VALID,0,VALID,94.7065,VALID,0,VALID,23.428,VALID,69,VALID,0,
2012-02-13, 02:20:05,VALID,999.758,VALID,0,VALID,94.6836,VALID,0,VALID,23.428,VALID,69,VALID,0,
2012-02-13, 02:21:05,VALID,999.744,VALID,0,VALID,94.6988,VALID,0,VALID,23.428,VALID,69,VALID,0,
2012-02-13, 02:22:05,VALID,999.744,VALID,0,VALID,94.7065,VALID,0,VALID,23.428,VALID,69,VALID,0,
2012-02-13, 02:23:05,VALID,999.742,VALID,0,VALID,94.7141,VALID,0,VALID,23.428,VALID,69,VALID,0,
2012-02-13, 02:24:05,VALID,999.737,VALID,0,VALID,94.6988,VALID,0,VALID,23.428,VALID,69,VALID,0,
2012-02-13, 02:25:05,VALID,999.719,VALID,0,VALID,94.6988,VALID,0,VALID,23.4475,VALID,69,VALID,0,
2012-02-13, 02:26:05,VALID,999.695,VALID,0,VALID,94.676,VALID,0,VALID,23.4475,VALID,69,VALID,0,
2012-02-13, 02:27:05,VALID,999.689,VALID,0,VALID,94.6836,VALID,0,VALID,23.4671,VALID,69,VALID,0,
2012-02-13, 02:28:05,VALID,999.677,VALID,0,VALID,94.7065,VALID,0,VALID,23.4671,VALID,69,VALID,0,
2012-02-13, 02:29:05,VALID,999.694,VALID,0,VALID,94.7141,VALID,0,VALID,23.4671,VALID,69,VALID,0,
2012-02-13, 02:30:05,VALID,999.657,VALID,0,VALID,94.6912,VALID,0,VALID,23.4671,VALID,69,VALID,0,
2012-02-13, 02:31:04,VALID,999.663,VALID,0,VALID,94.6988,VALID,0,VALID,23.4671,VALID,69,VALID,0,
2012-02-13, 02:32:04,VALID,999.654,VALID,0,VALID,94.6912,VALID,0,VALID,23.4475,VALID,69,VALID,0,
2012-02-13, 02:33:04,VALID,999.664,VALID,0,VALID,94.6988,VALID,0,VALID,23.4671,VALID,69,VALID,0,
2012-02-13, 02:34:04,VALID,999.644,VALID,0,VALID,94.7065,VALID,0,VALID,23.4671,VALID,69,VALID,0,
2012-02-13, 02:35:04,VALID,999.636,VALID,0,VALID,94.7141,VALID,0,VALID,23.4475,VALID,69,VALID,0.387891,
2012-02-13, 02:36:04,VALID,999.643,VALID,0,VALID,94.6836,VALID,0,VALID,23.4263,VALID,69,VALID,0.514844,
2012-02-13, 02:37:04,VALID,999.644,VALID,0,VALID,94.6836,VALID,0,VALID,23.4263,VALID,69,VALID,0.4,
2012-02-13, 02:38:04,VALID,999.682,VALID,0,VALID,94.6683,VALID,0,VALID,23.4475,VALID,69,VALID,0.219531,
2012-02-13, 02:39:04,VALID,999.682,VALID,0,VALID,94.6531,VALID,0,VALID,23.4067,VALID,69,VALID,0.0542969,
2012-02-13, 02:40:04,VALID,999.681,VALID,0,VALID,94.6531,VALID,0,VALID,23.4067,VALID,69,VALID,0.536328,
2012-02-13, 02:41:04,VALID,999.67,VALID,0,VALID,94.6302,VALID,0,VALID,23.4085,VALID,46,VALID,0.614844,
2012-02-13, 02:42:04,VALID,999.659,VALID,0,VALID,94.6226,VALID,0,VALID,23.4085,VALID,43,VALID,0.455078,
2012-02-13, 02:43:04,VALID,999.661,VALID,0,VALID,94.6378,VALID,0,VALID,23.389,VALID,43,VALID,0.404687,
2012-02-13, 02:44:04,VALID,999.664,VALID,0,VALID,94.6607,VALID,0,VALID,23.3482,VALID,43,VALID,0.384375,
2012-02-13, 02:45:04,VALID,999.627,VALID,0,VALID,94.6378,VALID,0,VALID,23.35,VALID,43,VALID,0.405078,
2012-02-13, 02:46:04,VALID,999.656,VALID,0,VALID,94.6302,VALID,0,VALID,23.3305,VALID,43,VALID,0.499219,
2012-02-13, 02:47:04,VALID,999.668,VALID,0,VALID,94.6531,VALID,0,VALID,23.3305,VALID,45,VALID,0.565625,
2012-02-13, 02:48:04,VALID,999.667,VALID,0,VALID,94.6454,VALID,0,VALID,23.311,VALID,84,VALID,0.942578,
2012-02-13, 02:49:04,VALID,999.684,VALID,0,VALID,94.6607,VALID,0,VALID,23.2915,VALID,84,VALID,0.983203,
2012-02-13, 02:50:04,VALID,999.673,VALID,0,VALID,94.6607,VALID,0,VALID,23.311,VALID,84,VALID,0.717188,
2012-02-13, 02:51:04,VALID,999.662,VALID,0,VALID,94.6683,VALID,0,VALID,23.2897,VALID,90,VALID,0.627344,
2012-02-13, 02:52:04,VALID,999.651,VALID,0,VALID,94.6607,VALID,0,VALID,23.311,VALID,90,VALID,0.505078,
2012-02-13, 02:53:04,VALID,999.639,VALID,0,VALID,94.6836,VALID,0,VALID,23.2915,VALID,90,VALID,0.371094,
2012-02-13, 02:54:04,VALID,999.61,VALID,0,VALID,94.6912,VALID,0,VALID,23.311,VALID,90,VALID,0.451562,
2012-02-13, 02:55:04,VALID,999.605,VALID,0,VALID,94.6836,VALID,0,VALID,23.311,VALID,90,VALID,0.305469,
2012-02-13, 02:56:04,VALID,999.572,VALID,0,VALID,94.6912,VALID,0,VALID,23.311,VALID,90,VALID,0.375,
2012-02-13, 02:57:04,VALID,999.557,VALID,0,VALID,94.6836,VALID,0,VALID,23.311,VALID,90,VALID,0.414453,
2012-02-13, 02:58:04,VALID,999.533,VALID,0,VALID,94.6836,VALID,0,VALID,23.3092,VALID,90,VALID,0.358984,
2012-02-13, 02:59:04,VALID,999.515,VALID,0,VALID,94.7065,VALID,0,VALID,23.3092,VALID,90,VALID,0.296875,
2012-02-13, 03:00:04,VALID,999.492,VALID,0,VALID,94.6912,VALID,0,VALID,23.3305,VALID,89,VALID,0.307813,
2012-02-13, 03:01:04,VALID,999.482,VALID,0,VALID,94.6912,VALID,0,VALID,23.3305,VALID,89,VALID,0.598828,
2012-02-13, 03:02:04,VALID,999.464,VALID,0,VALID,94.7065,VALID,0,VALID,23.2897,VALID,79,VALID,0.690625,
2012-02-13, 03:03:04,VALID,999.454,VALID,0,VALID,94.6836,VALID,0,VALID,23.2897,VALID,66,VALID,0.659375,
2012-02-13, 03:04:04,VALID,999.457,VALID,0,VALID,94.6836,VALID,0,VALID,23.311,VALID,66,VALID,0.609766,
2012-02-13, 03:05:04,VALID,999.472,VALID,0,VALID,94.6836,VALID,0,VALID,23.2915,VALID,66,VALID,0.609766,
2012-02-13, 03:06:04,VALID,999.478,VALID,0,VALID,94.6836,VALID,0,VALID,23.311,VALID,66,VALID,0.490234,
2012-02-13, 03:07:04,VALID,999.525,VALID,0,VALID,94.6836,VALID,0,VALID,23.311,VALID,66,VALID,0.382031,
2012-02-13, 03:08:04,VALID,999.499,VALID,0,VALID,94.6988,VALID,0,VALID,23.311,VALID,66,VALID,0.252734,
2012-02-13, 03:09:04,VALID,999.525,VALID,0,VALID,94.6912,VALID,0,VALID,23.2897,VALID,66,VALID,0.110156,
2012-02-13, 03:10:04,VALID,999.521,VALID,0,VALID,94.6836,VALID,0,VALID,23.2915,VALID,66,VALID,0,
2012-02-13, 03:11:04,VALID,999.545,VALID,0,VALID,94.6607,VALID,0,VALID,23.2507,VALID,66,VALID,0,
2012-02-13, 03:12:04,VALID,999.52,VALID,0,VALID,94.6683,VALID,0,VALID,23.2507,VALID,66,VALID,0,
2012-02-13, 03:13:04,VALID,999.525,VALID,0,VALID,94.6454,VALID,0,VALID,23.2719,VALID,66,VALID,0,
2012-02-13, 03:14:04,VALID,999.536,VALID,0,VALID,94.6607,VALID,0,VALID,23.2702,VALID,66,VALID,0,
2012-02-13, 03:15:04,VALID,999.551,VALID,0,VALID,94.6836,VALID,0,VALID,23.2702,VALID,66,VALID,0,
2012-02-13, 03:16:04,VALID,999.52,VALID,0,VALID,94.6988,VALID,0,VALID,23.2507,VALID,66,VALID,0,
2012-02-13, 03:17:04,VALID,999.539,VALID,0,VALID,94.676,VALID,0,VALID,23.2915,VALID,66,VALID,0,
2012-02-13, 03:18:04,VALID,999.544,VALID,0,VALID,94.676,VALID,0,VALID,23.2719,VALID,66,VALID,0.29375,
2012-02-13, 03:19:04,VALID,999.576,VALID,0,VALID,94.6836,VALID,0,VALID,23.2915,VALID,66,VALID,0.474219,
2012-02-13, 03:20:04,VALID,999.574,VALID,0,VALID,94.7065,VALID,0,VALID,23.311,VALID,66,VALID,0.508984,
2012-02-13, 03:21:04,VALID,999.595,VALID,0,VALID,94.6912,VALID,0,VALID,23.2702,VALID,44,VALID,0.581641,
2012-02-13, 03:22:04,VALID,999.59,VALID,0,VALID,94.6836,VALID,0,VALID,23.2897,VALID,35,VALID,0.519922,
2012-02-13, 03:23:04,VALID,999.622,VALID,0,VALID,94.7294,VALID,0,VALID,23.2702,VALID,35,VALID,0.483594,
2012-02-13, 03:24:04,VALID,999.612,VALID,0,VALID,94.7294,VALID,0,VALID,23.2702,VALID,35,VALID,0.355859,
2012-02-13, 03:25:04,VALID,999.619,VALID,0,VALID,94.7217,VALID,0,VALID,23.2702,VALID,35,VALID,0.287891,
2012-02-13, 03:26:04,VALID,999.639,VALID,0,VALID,94.737,VALID,0,VALID,23.2507,VALID,35,VALID,0.241797,
2012-02-13, 03:27:04,VALID,999.657,VALID,0,VALID,94.737,VALID,0,VALID,23.2507,VALID,35,VALID,0.236328,
2012-02-13, 03:28:04,VALID,999.671,VALID,0,VALID,94.737,VALID,0,VALID,23.2719,VALID,35,VALID,0.135547,
2012-02-13, 03:29:04,VALID,999.668,VALID,0,VALID,94.7446,VALID,0,VALID,23.2507,VALID,35,VALID,0,
2012-02-13, 03:30:04,VALID,999.683,VALID,0,VALID,94.7523,VALID,0,VALID,23.2507,VALID,35,VALID,0,
2012-02-13, 03:31:04,VALID,999.681,VALID,0,VALID,94.7599,VALID,0,VALID,23.2524,VALID,35,VALID,0,
2012-02-13, 03:32:04,VALID,999.7,VALID,0,VALID,94.7523,VALID,0,VALID,23.2312,VALID,35,VALID,0,
2012-02-13, 03:33:04,VALID,999.707,VALID,0,VALID,94.7523,VALID,0,VALID,23.2117,VALID,35,VALID,0,
2012-02-13, 03:34:04,VALID,999.732,VALID,0,VALID,94.7675,VALID,0,VALID,23.1921,VALID,35,VALID,0,
2012-02-13, 03:35:04,VALID,999.725,VALID,0,VALID,94.7751,VALID,0,VALID,23.2329,VALID,35,VALID,0,
2012-02-13, 03:36:04,VALID,999.739,VALID,0,VALID,94.7675,VALID,0,VALID,23.2312,VALID,35,VALID,0,
2012-02-13, 03:37:04,VALID,999.718,VALID,0,VALID,94.7751,VALID,0.104696,VALID,23.2507,VALID,35,VALID,0,
2012-02-13, 03:38:04,VALID,999.713,VALID,0,VALID,94.7751,VALID,0,VALID,23.2524,VALID,35,VALID,0,
2012-02-13, 03:39:04,VALID,999.744,VALID,0,VALID,94.798,VALID,0,VALID,23.2507,VALID,35,VALID,0,
2012-02-13, 03:40:04,VALID,999.737,VALID,0,VALID,94.798,VALID,0,VALID,23.2507,VALID,35,VALID,0,
2012-02-13, 03:41:04,VALID,999.759,VALID,0,VALID,94.798,VALID,0,VALID,23.2702,VALID,35,VALID,0,
2012-02-13, 03:42:04,VALID,999.733,VALID,0,VALID,94.8133,VALID,0,VALID,23.2915,VALID,35,VALID,0.0378906,
2012-02-13, 03:43:04,VALID,999.75,VALID,0,VALID,94.798,VALID,0,VALID,23.3305,VALID,35,VALID,0.520312,
2012-02-13, 03:44:04,VALID,999.76,VALID,0,VALID,94.8285,VALID,0,VALID,23.3305,VALID,53,VALID,0.55,
2012-02-13, 03:45:04,VALID,999.725,VALID,0,VALID,94.8209,VALID,0,VALID,23.3092,VALID,85,VALID,0.676562,
2012-02-13, 03:46:04,VALID,999.741,VALID,0,VALID,94.8209,VALID,0,VALID,23.35,VALID,106,VALID,0.774609,
2012-02-13, 03:47:04,VALID,999.744,VALID,0,VALID,94.8285,VALID,0,VALID,23.3287,VALID,107,VALID,0.812891,
2012-02-13, 03:48:04,VALID,999.771,VALID,0,VALID,94.8362,VALID,0,VALID,23.3482,VALID,117,VALID,0.825,
2012-02-13, 03:49:04,VALID,999.756,VALID,0,VALID,94.8438,VALID,0,VALID,23.3287,VALID,118,VALID,0.752734,
2012-02-13, 03:50:04,VALID,999.741,VALID,0,VALID,94.8362,VALID,0,VALID,23.3287,VALID,121,VALID,0.701563,
2012-02-13, 03:51:04,VALID,999.75,VALID,0,VALID,94.8514,VALID,0,VALID,23.3482,VALID,125,VALID,0.598828,